This is the latest recevied weather packets stored in our database for station/object KC8SWY-15. If no packets are shown the sender has not sent any weather packets the latest 10 day(s).
| Time | Temp. | Humidity | Pressure | Rain* | Wind** | Luminosity | Snow |
|---|---|---|---|---|---|---|---|
| 1777732483 | 5.56° C | 60% | 1020.9 hPa | 1.02 mm | - | - | - |
| 1777732183 | 5.56° C | 61% | 1020.8 hPa | 1.02 mm | - | - | - |
| 1777731883 | 5.56° C | 59% | 1020.8 hPa | 0.76 mm | - | - | - |
| 1777731583 | 6.11° C | 58% | 1020.8 hPa | 0.76 mm | - | - | - |
| 1777731283 | 6.11° C | 61% | 1020.8 hPa | 0.76 mm | - | - | - |
| 1777730983 | 5.56° C | 65% | 1020.8 hPa | 0.76 mm | - | - | - |
| 1777730683 | 5.56° C | 65% | 1020.8 hPa | 0.76 mm | - | - | - |
| 1777730383 | 5° C | 66% | 1020.8 hPa | 1.02 mm | - | - | - |
| 1777730083 | 5° C | 68% | 1020.9 hPa | 0.76 mm | - | - | - |
| 1777729784 | 5° C | 69% | 1020.8 hPa | 0.76 mm | - | - | - |
| 1777729483 | 5° C | 68% | 1020.9 hPa | 0.76 mm | - | - | - |
| 1777729184 | 5° C | 73% | 1020.8 hPa | 0.51 mm | - | - | - |
| 1777728884 | 4.44° C | 73% | 1020.8 hPa | 0.51 mm | - | - | - |
| 1777728584 | 4.44° C | 74% | 1020.9 hPa | 0.76 mm | - | - | - |
| 1777728284 | 4.44° C | 76% | 1020.9 hPa | 0.76 mm | - | - | - |
| 1777727984 | 3.89° C | 78% | 1020.9 hPa | 0.76 mm | - | - | - |
| 1777727684 | 3.89° C | 77% | 1020.9 hPa | 0.51 mm | - | - | - |
| 1777727384 | 3.89° C | 77% | 1020.9 hPa | 0.51 mm | - | - | - |
| 1777727084 | 3.89° C | 80% | 1020.9 hPa | 0.76 mm | - | - | - |
| 1777726784 | 3.89° C | 80% | 1020.9 hPa | 0.51 mm | - | - | - |
| 1777726484 | 3.89° C | 82% | 1021 hPa | 0.51 mm | - | - | - |
| 1777726184 | 3.33° C | 82% | 1020.9 hPa | 0.51 mm | - | - | - |
| 1777725884 | 3.33° C | 84% | 1020.9 hPa | 0.51 mm | - | - | - |
| 1777725584 | 2.78° C | 86% | 1020.8 hPa | 0.51 mm | - | - | - |
| 1777725284 | 2.78° C | 90% | 1020.8 hPa | 0.51 mm | - | - | - |
* Rain latest hour (hover to see other rain measurements)
** Current wind speed in m/s (hover to see current wind gust speed)